TimeEST,TemperatureF,Dew PointF,Humidity,Sea Level PressureIn,VisibilityMPH,Wind Direction,Wind SpeedMPH,Gust SpeedMPH,PrecipitationIn,Events,Conditions,WindDirDegrees,DateUTC
12:54 AM,36.0,19.0,50,30.37,-9999.0,North,-9999.0,-,N/A,,Unknown,0,2013-11-14 05:54:00
1:54 AM,35.1,18.0,50,30.37,-9999.0,North,-9999.0,-,N/A,,Unknown,0,2013-11-14 06:54:00
2:54 AM,35.1,18.0,50,30.35,-9999.0,North,-9999.0,-,N/A,,Unknown,0,2013-11-14 07:54:00
3:54 AM,34.0,18.0,52,30.35,-9999.0,North,-9999.0,-,N/A,,Unknown,0,2013-11-14 08:54:00
4:54 AM,34.0,18.0,52,30.34,-9999.0,North,-9999.0,-,N/A,,Unknown,0,2013-11-14 09:54:00
5:54 AM,34.0,17.1,50,30.33,-9999.0,North,-9999.0,-,N/A,,Unknown,0,2013-11-14 10:54:00
6:54 AM,34.0,17.1,50,30.34,-9999.0,North,-9999.0,-,N/A,,Unknown,0,2013-11-14 11:54:00
7:54 AM,37.0,19.0,48,30.36,-9999.0,North,-9999.0,-,N/A,,Unknown,0,2013-11-14 12:54:00
8:54 AM,42.1,17.1,37,30.36,-9999.0,North,-9999.0,-,N/A,,Unknown,0,2013-11-14 13:54:00
9:54 AM,48.0,16.0,28,30.36,-9999.0,North,-9999.0,-,N/A,,Unknown,0,2013-11-14 14:54:00
10:54 AM,52.0,14.0,22,30.33,-9999.0,North,-9999.0,-,N/A,,Unknown,0,2013-11-14 15:54:00
11:54 AM,54.0,12.9,20,30.30,-9999.0,North,-9999.0,-,N/A,,Unknown,0,2013-11-14 16:54:00
12:54 PM,57.9,8.1,14,30.28,-9999.0,North,-9999.0,-,N/A,,Unknown,0,2013-11-14 17:54:00
1:54 PM,60.1,7.0,12,30.26,-9999.0,North,-9999.0,-,N/A,,Unknown,0,2013-11-14 18:54:00
2:54 PM,59.0,7.0,13,30.25,-9999.0,North,-9999.0,-,N/A,,Unknown,0,2013-11-14 19:54:00
3:54 PM,60.1,9.0,13,30.25,-9999.0,North,-9999.0,-,N/A,,Unknown,0,2013-11-14 20:54:00
4:54 PM,57.0,15.1,19,30.25,-9999.0,North,-9999.0,-,N/A,,Unknown,0,2013-11-14 21:54:00
5:54 PM,54.0,17.1,23,30.26,-9999.0,North,-9999.0,-,N/A,,Unknown,0,2013-11-14 22:54:00
6:54 PM,51.1,21.9,32,30.27,-9999.0,North,-9999.0,-,N/A,,Unknown,0,2013-11-14 23:54:00
7:54 PM,50.0,21.0,32,30.26,-9999.0,North,-9999.0,-,N/A,,Unknown,0,2013-11-15 00:54:00
8:54 PM,48.0,21.9,36,30.25,-9999.0,North,-9999.0,-,N/A,,Unknown,0,2013-11-15 01:54:00
9:54 PM,46.9,23.0,39,30.25,-9999.0,North,-9999.0,-,N/A,,Unknown,0,2013-11-15 02:54:00
10:54 PM,46.9,25.0,42,30.24,-9999.0,North,-9999.0,-,N/A,,Unknown,0,2013-11-15 03:54:00
11:54 PM,44.1,27.0,51,30.23,-9999.0,North,-9999.0,-,N/A,,Unknown,0,2013-11-15 04:54:00